World > North America > United States > New York

Hourly Smyrna, NY Regional Weather

Feedback E-mail the Weather

Latest News

Smyrna, NY Weather Maps

°F °C°F °C
Smyrna Weather Map
UTC Time: 5/27/2022, 00:47
Your Time:

Smyrna, NY Regional Weather

Expires:202205270100;;625799
ASUS41 KBGM 270010
RWRBGM

REGIONAL WEATHER ROUNDUP
NATIONAL WEATHER SERVICE BINGHAMTON NY
800 PM EDT THU MAY 26 2022

Note: "fair" indicates few or no clouds below 12,000 feet with no
significant weather and/or obstructions to visibility.

* = Station(s) that does not report precipitation, such as rain, 
snow, etc, also no thunder or fog.


NYZ009-015>018-022>025-036-037-044>046-055>057-062-270100
...Central New York...
  
CITY           SKY/WX    TMP DP  RH WIND       PRES   REMARKS
Binghamton     CLOUDY    63  57  81 S12G22    30.06S                  
Cortland       CLOUDY    64  55  72 S17G25    30.03R                  
Dansville      PTCLDY    75  59  57 SE12      29.91S                  
Elmira         CLOUDY    67  58  72 S13       30.01S                  
Ithaca         CLOUDY    67  58  72 S18G25    30.02R                  
Hamilton       CLOUDY    68  54  60 S16G25    30.01F                  
Monticello     CLOUDY    64  58  80 S9        30.12F                  
Norwich        CLOUDY    66  57  72 S15G23    30.06S                  
Oneonta        PTCLDY    64  55  72 SW7       30.07S                  
Penn Yan       PTCLDY    70  56  61 S14G25    29.97R                  
Rome           PTCLDY    74  58  57 S15       29.97S                  
Seneca Falls   CLEAR     70  55  60 S23G31    29.94S                  
Sidney         CLOUDY    66  57  72 SW3       30.06S                  
Skaneateles    FAIR      70  59  68 S8G22     29.97R                  
Syracuse       MOCLDY    74  58  57 S22G30    29.94R                  
$$
 

SKY/WX - Weather  TMP - Temperature  DP - Dew Point  RH - Humidity
WIND - Wind Direction/Speed PRES - Barometric Pressure VSB - Visibility
WCI - Wind Chill Index E13G22 Wind - East Wind 13 mph/Gusts of 22 mph

Trending Headlines

Smyrna Radar Loop



Smyrna Quick Facts


National Two Day Weather Forecast


E-mail the Smyrna Weather Forecast

Voice your opinion or tell us about page issues...